Location: St. Louis
(38.6270°N, 90.1994°W)
Time: 19:43:33
(UTC-06:00)

Vanguard 1 - Pass Details

Date: 03 December 2021
Orbit: 652 x 3830 km, 34.2° (Epoch: 21 January)

Event Time Altitude Azimuth Distance (km) Brightness Sun altitude
Exits shadow 03:34:49 62° 249° (WSW) 3,694 12.4 -39.8°
Maximum altitude 03:39:23 75° 190° (S) 3,259 12.4 -38.9°
Drops below altitude 10° 03:54:11 10° 108° (ESE) 4,726 14.2 -36.0°
Sets 03:57:05 0° 107° (ESE) 5,395 14.8 -35.4°
